Regional Weather Roundup
Issued by NWS

Home | Current Version | Previous Version | Graphics & Text | Print | Product List | Glossary On
Versions: 1 2 3 4 5 6 7 8 9 10 11 12 13 14 15 16 17 18 19 20 21 22 23 24 25 26 27 28 29 30 31 32 33 34 35 36 37 38 39 40 41 42 43 44 45 46 47 48 49 50
000
ASUS43 KOAX 312210
RWRNE

WEATHER ROUNDUP FOR NEBRASKA
NATIONAL WEATHER SERVICE OMAHA NE
500 PM CDT MON AUG 31 2015

NOTES: SATELLITE DATA IS BEING USED TO AUGMENT CLOUD COVER ABOVE
       12000 FEET.
       "FAIR" INDICATES FEW OR NO CLOUDS BELOW 12,000 FEET WITH NO
       SIGNIFICANT WEATHER AND/OR OBSTRUCTIONS TO VISIBILITY.

  * THESE STATIONS DO NOT REPORT WEATHER SUCH AS RAIN...SNOW OR FOG.

NEZ001>004-019>022-054>056-312300-
NEBRASKA PANHANDLE

CITY           SKY/WX    TMP DP  RH WIND       PRES   REMARKS
SCOTTSBLUFF    PTSUNNY   87  51  28 E8        29.98F
ALLIANCE       PTSUNNY   83  51  33 SE9       29.99F
CHADRON        PTSUNNY   82  53  36 NE5       29.96F
KIMBALL        MOSUNNY   84  48  28 SE8       30.03F
SIDNEY         PTSUNNY   83  51  33 E15       30.03S
$$

NEZ057>060-069>072-079>082-312300-
SOUTHWEST NEBRASKA

CITY           SKY/WX    TMP DP  RH WIND       PRES   REMARKS
NORTH PLATTE   SUNNY     89  63  41 SE7       29.90F HX  90
IMPERIAL       MOSUNNY   92  55  28 NE12      29.93F HX  90
LEXINGTON      SUNNY     91  65  42 SE12      29.90F HX  92
MCCOOK         SUNNY     96  57  27 E9        29.87F HX  95
OGALLALA       PTSUNNY   89  52  28 N14       29.94S
$$

NEZ005>010-023>029-035>040-094-312300-
NORTH CENTRAL NEBRASKA

CITY           SKY/WX    TMP DP  RH WIND       PRES   REMARKS
VALENTINE      CLOUDY    79  59  50 N9        29.94F
AINSWORTH      PTSUNNY   83  63  49 NE10      29.94S
BROKEN BOW     SUNNY     91  63  39 S8        29.90S HX  92
O`NEILL        SUNNY     90  62  39 NW10      29.89R HX  91
ORD            SUNNY     90  62  39 S9        29.87F HX  90
THEDFORD       PTSUNNY   85  61  43 N13G18    29.95S
$$

NEZ041-046>049-061>064-073>077-083>087-312300-
SOUTH CENTRAL NEBRASKA

CITY           SKY/WX    TMP DP  RH WIND       PRES   REMARKS
GRAND ISLAND   SUNNY     90  63  40 S13       29.90F HX  91
AURORA         SUNNY     88  66  48 S12       29.91S HX  90
HASTINGS       SUNNY     91  64  40 S8        29.90S HX  92
HEBRON         SUNNY     90  61  37 S10G16    29.90S HX  90
HOLDREGE       SUNNY     90  61  37 S13       29.90S
KEARNEY *      SUNNY     90  66  45 SE13      29.90S HX  92
YORK           SUNNY     86  68  54 S8        29.91S
$$

NEZ011>018-030>034-042>045-312300-
NORTHEAST NEBRASKA

CITY           SKY/WX    TMP DP  RH WIND       PRES   REMARKS
NORFOLK        SUNNY     84  67  56 S13       29.89R
ALBION         SUNNY     84  69  59 S12       29.90R
BLAIR          MOSUNNY   83  67  58 S8        29.92S
COLUMBUS *     SUNNY     84  66  54 S8G16     29.89F
FREMONT        SUNNY     84  66  54 S9        29.91F
TEKAMAH        SUNNY     84  70  62 S7        29.89F
WAYNE          SUNNY     83  70  64 S10       29.90S
$$

NEZ050>053-065>068-078-088>093-312300-
SOUTHEAST NEBRASKA

CITY           SKY/WX    TMP DP  RH WIND       PRES   REMARKS
LINCOLN        SUNNY     88  69  53 S12       29.90F HX  92
OMAHA EPPLEY   MOSUNNY   86  66  51 S13       29.91F
BEATRICE       SUNNY     88  68  51 S12       29.91R HX  92
FALLS CITY     SUNNY     90  68  48 S8        29.91F HX  94
NEBRASKA CITY  SUNNY     87  60  41 S7        29.92F
PLATTSMOUTH    MOSUNNY   83  65  54 SE7       29.92S
$$

NEZ044-045-051>053-067-312300-
OMAHA AREA

CITY           SKY/WX    TMP DP  RH WIND       PRES   REMARKS
OMAHA EPPLEY   MOSUNNY   86  66  51 S13       29.91F
BLAIR          MOSUNNY   83  67  58 S8        29.92S
FREMONT        SUNNY     84  66  54 S9        29.91F
MILLARD        SUNNY     85  68  55 S9        29.91S
OFFUTT AFB     MOSUNNY   85  67  54 SE8       29.90F
PLATTSMOUTH    MOSUNNY   83  65  54 SE7       29.92S
WAHOO          FAIR      85  69  58 S7        29.91S
$$




USA.gov is the U.S. government's official web portal to all federal, state and local government web resources and services.